Charlotte, NC

3:36 AM EDT on August 27, 2016 (GMT -0400)
Charlotte-Douglas International

Weather History for KCLT - March, 2013

Change the Weather History Date:

Monday, March 25, 2013

  Actual Average Record
Temperature  
Mean Temperature 43 °F 54 °F  
Max Temperature 50 °F 66 °F 90 °F (1929)
Min Temperature 36 °F 42 °F 22 °F (1940)
Degree Days  
Heating Degree Days 22 12  
Month to date heating degree days 474 370  
Since 1 July heating degree days 2879 3069  
Cooling Degree Days 0 0  
Month to date cooling degree days 3 0  
Year to date cooling degree days 3 0  
Moisture  
Dew Point 28 °F    
Average Humidity 66    
Maximum Humidity 100    
Minimum Humidity 31    
Precipitation  
Precipitation 0.02 in 0.12 in 1.89 in (1884)
Month to date precipitation 2.84 3.26  
Year to date precipitation 10.59 9.99  
Snow  
Snow 0.00 in 0.00 in 5.40 in (1971)
Month to date snowfall T 0.5  
Since 1 July snowfall 2.7 4.2  
Snow Depth 0.00 in    
Sea Level Pressure  
Sea Level Pressure 29.68 in    
Wind  
Wind Speed 9 mph (WNW)    
Max Wind Speed 23 mph    
Max Gust Speed 32 mph    
Visibility 9 miles    
Events Rain    
T = Trace of Precipitation, MM = Missing Value Source: NWS Daily Summary

Daily Weather History Graph

Daily Weather History Graph

Search for Another Location

Airport or City:

Trip Planner

Search our weather history database for the weather conditions in past years. The results will help you decide how hot, cold, wet, or windy it might be!

Date:

Astronomy

Mar. 25, 2013 Rise Set
Actual Time 7:20 AM EDT 7:39 PM EDT
Civil Twilight 6:54 AM EDT 8:05 PM EDT
Nautical Twilight 6:24 AM EDT 8:35 PM EDT
Astronomical Twilight 5:54 AM EDT 9:05 PM EDT
Moon 6:11 PM EDT (3/25) 5:59 AM EDT (3/25)
Length of Visible Light 13h 10m
Length of Day
12h 19m
Waxing Gibbous, 96% of the Moon is Illuminated
Mar 25
Waxing Gibbous
Mar 27
Full
Apr 3
Last Quarter
Apr 10
New
Apr 18
First Quarter

Hourly Weather History & Observations

Time (EDT) Temp. Windchill Dew Point Humidity Pressure Visibility Wind Dir Wind Speed Gust Speed Precip Events Conditions
12:52 AM 39.0 °F - 37.0 °F 93% 29.60 in 10.0 mi Calm Calm - 0.00 in   Light Drizzle
1:52 AM 39.0 °F - 37.0 °F 93% 29.59 in 9.0 mi Calm Calm - 0.00 in   Light Drizzle
2:52 AM 39.0 °F - 37.0 °F 93% 29.58 in 10.0 mi Calm Calm - 0.00 in   Overcast
3:52 AM 39.0 °F 36.8 °F 37.0 °F 93% 29.57 in 6.0 mi South 3.5 mph - 0.00 in   Overcast
4:52 AM 39.0 °F 36.8 °F 37.9 °F 96% 29.57 in 7.0 mi NNW 3.5 mph - N/A   Overcast
5:52 AM 39.0 °F 36.8 °F 37.9 °F 96% 29.58 in 3.0 mi NNW 3.5 mph - 0.02 in Rain Light Rain
6:10 AM 39.2 °F - 37.4 °F 93% 29.57 in 9.0 mi Calm Calm - 0.00 in   Overcast
6:17 AM 39.2 °F - 37.4 °F 93% 29.58 in 10.0 mi Calm Calm - 0.00 in   Overcast
6:52 AM 37.9 °F - 37.0 °F 97% 29.59 in 7.0 mi Calm Calm - 0.00 in   Overcast
6:58 AM 39.2 °F 37.0 °F 37.4 °F 93% 29.59 in 8.0 mi West 3.5 mph - N/A   Overcast
7:52 AM 39.0 °F - 37.9 °F 96% 29.60 in 5.0 mi Calm Calm - N/A   Mostly Cloudy
8:52 AM 39.9 °F 36.7 °F 39.0 °F 97% 29.62 in 9.0 mi WSW 4.6 mph - N/A   Mostly Cloudy
9:47 AM 41.0 °F 35.8 °F 33.8 °F 76% 29.64 in 10.0 mi West 8.1 mph - N/A   Mostly Cloudy
9:52 AM 42.1 °F 36.6 °F 35.1 °F 76% 29.65 in 10.0 mi West 9.2 mph - N/A   Mostly Cloudy
10:52 AM 44.1 °F 35.9 °F 24.1 °F 45% 29.67 in 10.0 mi NW 19.6 mph 27.6 mph N/A   Scattered Clouds
11:52 AM 48.0 °F - 25.0 °F 41% 29.68 in 10.0 mi West 12.7 mph 26.5 mph N/A   Mostly Cloudy
12:52 PM 45.0 °F 37.9 °F 21.0 °F 39% 29.69 in 10.0 mi West 16.1 mph 24.2 mph N/A   Mostly Cloudy
1:52 PM 46.9 °F - 21.9 °F 37% 29.69 in 10.0 mi WNW 13.8 mph 24.2 mph N/A   Mostly Cloudy
2:52 PM 46.0 °F 41.9 °F 21.0 °F 37% 29.68 in 10.0 mi West 8.1 mph 23.0 mph N/A   Mostly Cloudy
3:52 PM 50.0 °F - 21.9 °F 33% 29.69 in 10.0 mi WNW 15.0 mph 21.9 mph N/A   Mostly Cloudy
4:52 PM 48.0 °F - 19.9 °F 33% 29.70 in 10.0 mi WNW 13.8 mph 24.2 mph N/A   Mostly Cloudy
5:52 PM 46.9 °F - 19.0 °F 33% 29.73 in 10.0 mi NW 16.1 mph 25.3 mph N/A   Mostly Cloudy
6:52 PM 45.0 °F 37.6 °F 17.1 °F 33% 29.77 in 10.0 mi West 17.3 mph 26.5 mph N/A   Scattered Clouds
7:52 PM 42.1 °F 36.6 °F 17.1 °F 37% 29.81 in 10.0 mi WNW 9.2 mph - N/A   Scattered Clouds
8:52 PM 41.0 °F 34.3 °F 19.0 °F 41% 29.84 in 10.0 mi NW 11.5 mph 19.6 mph N/A   Scattered Clouds
9:52 PM 39.0 °F 34.0 °F 19.9 °F 46% 29.87 in 10.0 mi West 6.9 mph - N/A   Scattered Clouds
10:52 PM 37.9 °F 33.5 °F 21.0 °F 51% 29.89 in 10.0 mi West 5.8 mph 16.1 mph N/A   Scattered Clouds
11:52 PM 37.0 °F 29.8 °F 21.0 °F 52% 29.89 in 10.0 mi West 10.4 mph 17.3 mph N/A   Scattered Clouds